[[{"header":{"parameterUnit":"m.s-1","parameterCategory":1,"la1":30.2991,"la2":30.254,"lo1":-89.0895,"lo2":-89.0444,"dy":0.0017,"dx":0.0017,"nx":28,"ny":28,"refTime":"2023-09-02T21:00:00:Z","depth":0,"parameterNumber":2,"parameterNumberName":"U-component_of_WINDS"},"data":[0,0,0,0,0,0,0,0,0,0,0,0,0,0,0,0,0,0,0,0,0,0,0,0,0,0,0,0,0,0,0,0,0,0,0,0,0,0,0,0,0,0,0,0,0,0,0,0,0,0,0,0,0,0,0,0,0,0,-2.7194,-2.7194,0,-2.7256,-2.7257,-2.7258,-2.7284,-2.7284,-2.7284,-2.7284,-2.7344,-2.7346,-2.7347,0,0,0,0,0,0,0,0,0,0,0,0,0,-2.7094,-2.7096,-2.7193,-2.7194,-2.7195,-2.7256,-2.7257,-2.7258,-2.7284,-2.7284,-2.7284,-2.7284,-2.7344,-2.7346,-2.7348,0,0,0,0,0,0,0,0,0,0,0,0,0,-2.7145,-2.7097,-2.7193,-2.7216,-2.7218,-2.7256,-2.7257,-2.7258,-2.7284,-2.7284,-2.7284,-2.7284,-2.7343,-2.7345,-2.7348,-2.7367,0,0,-2.7356,-2.7357,0,0,0,0,0,0,0,0,-2.7142,-2.7149,-2.7212,-2.7214,-2.7217,-2.7263,-2.7244,-2.7294,-2.7284,-2.7259,-2.7284,-2.7284,-2.7317,-2.7321,-2.7333,-2.7369,-2.7372,-2.7356,-2.7357,-2.7358,-2.7359,0,0,0,0,0,0,0,-2.7139,-2.7146,-2.7218,-2.7213,-2.7216,-2.7222,-2.7229,-2.7254,-2.7288,-2.7261,-2.7264,-2.7271,-2.7318,-2.7331,-2.7335,-2.7373,-2.7356,-2.7358,-2.736,-2.7361,-2.743,-2.743,0,0,0,0,0,0,-2.7132,-2.7143,-2.7216,-2.722,-2.7179,-2.7224,-2.7232,-2.7248,-2.7288,-2.7294,-2.7271,-2.7272,-2.7327,-2.7332,-2.7337,-2.7363,-2.7358,-2.7361,-2.7362,-2.743,-2.743,-2.743,0,0,0,0,0,0,-2.713,-2.7138,-2.7214,-2.7182,-2.7192,-2.7226,-2.7244,-2.7249,-2.7262,-2.7295,-2.7301,-2.7278,-2.7327,-2.7334,-2.736,-2.7365,-2.7362,-2.7364,-2.7429,-2.743,-2.743,-2.7414,0,0,0,0,0,0,-2.7127,-2.7137,-2.7145,-2.7182,-2.7194,-2.7236,-2.7244,-2.7251,-2.7267,-2.7269,-2.7303,-2.7308,-2.7327,-2.7356,-2.7362,-2.7369,-2.7366,-2.7429,-2.7429,-2.743,-2.7414,-2.7414,-2.7413,0,0,0,0,0,-2.7123,-2.7136,-2.7145,-2.7154,-2.7204,-2.7236,-2.7242,-2.7265,-2.7267,-2.7275,-2.7297,-2.7307,-2.7364,-2.7358,-2.7366,-2.7373,-2.7429,-2.7429,-2.743,-2.7414,-2.7414,-2.7413,0,0,0,0,0,0,-2.7095,-2.7141,-2.7152,-2.7177,-2.7203,-2.724,-2.725,-2.7263,-2.7287,-2.7288,-2.7314,-2.7321,-2.7346,-2.7362,-2.7355,-2.7395,-2.7397,-2.74,-2.7383,-2.7383,-2.7382,-2.7377,-2.7368,0,0,0,0,0,-2.7093,-2.7116,-2.7154,-2.7173,-2.7186,-2.7216,-2.7231,-2.7246,-2.7273,-2.7283,-2.7307,-2.7332,-2.7355,-2.737,-2.7394,-2.7417,-2.7425,-2.7426,-2.7426,-2.7425,-2.7426,-2.7442,-2.7443,-2.7433,-2.7433,-2.7433,0,0,-2.7086,-2.7115,-2.7127,-2.7169,-2.719,-2.7213,-2.7225,-2.7247,-2.7265,-2.7286,-2.7313,-2.7332,-2.7361,-2.7387,-2.7399,-2.7401,-2.7432,-2.7426,-2.7426,-2.7427,-2.7443,-2.7444,-2.7445,-2.7433,-2.7433,-2.7433,0,0,-2.7087,-2.711,-2.713,-2.7152,-2.7186,-2.7207,-2.7212,-2.7248,-2.7262,-2.729,-2.7308,-2.7328,-2.7368,-2.7389,-2.7405,-2.7418,-2.7428,-2.7425,-2.7422,-2.7437,-2.7438,-2.7439,-2.7444,-2.7445,-2.7426,-2.7426,-2.7426,0,-2.7074,-2.711,-2.7137,-2.7161,-2.7179,-2.7203,-2.7223,-2.7243,-2.7281,-2.7293,-2.7296,-2.7349,-2.737,-2.7401,-2.7405,-2.7417,-2.7423,-2.742,-2.7436,-2.7437,-2.7438,-2.7443,-2.7445,-2.7425,-2.7425,-2.7425,-2.7425,0,-2.7093,-2.7118,-2.713,-2.717,-2.7189,-2.721,-2.7241,-2.7257,-2.7273,-2.7293,-2.7322,-2.735,-2.738,-2.7389,-2.7403,-2.7424,-2.7424,-2.7431,-2.7434,-2.7438,-2.7443,-2.7445,-2.7424,-2.7425,-2.7425,-2.7425,0,0,-2.7074,-2.7133,-2.7136,-2.7156,-2.7197,-2.7216,-2.7239,-2.7271,-2.7285,-2.7312,-2.7332,-2.7367,-2.7375,-2.7393,-2.741,-2.7423,-2.7433,-2.7429,-2.743,-2.7428,-2.7458,-2.7452,-2.7454,-2.7442,-2.7442,-2.7442,-2.7456,0,-2.708,-2.7123,-2.7151,-2.7183,-2.7207,-2.7232,-2.7253,-2.728,-2.7301,-2.7324,-2.7346,-2.7371,-2.7379,-2.7391,-2.7405,-2.7428,-2.7439,-2.7428,-2.7459,-2.746,-2.745,-2.7456,-2.7449,-2.746,-2.7458,-2.7458,-2.7459,0,-2.7091,-2.712,-2.7156,-2.7197,-2.7208,-2.7226,-2.7259,-2.7281,-2.7313,-2.7327,-2.735,-2.7368,-2.7393,-2.7396,-2.7432,-2.7424,-2.7439,-2.7453,-2.7454,-2.7457,-2.7458,-2.7458,-2.7464,-2.7466,-2.7462,-2.7462,-2.7461,0,-2.7073,-2.7122,-2.715,-2.7166,-2.7215,-2.7227,-2.7248,-2.728,-2.7298,-2.7327,-2.734,-2.737,-2.7387,-2.741,-2.7436,-2.7436,-2.747,-2.7474,-2.7482,-2.7481,-2.7486,-2.7485,-2.7494,-2.7498,-2.7498,-2.7498,-2.7497,0,-2.7076,-2.7096,-2.7144,-2.716,-2.7185,-2.7217,-2.724,-2.7262,-2.7292,-2.7314,-2.7337,-2.7357,-2.7391,-2.7415,-2.7436,-2.7463,-2.747,-2.7482,-2.7487,-2.7479,-2.7478,-2.7488,-2.7488,-2.7498,-2.7498,-2.7498,-2.7498,0,-2.7059,-2.7092,-2.7124,-2.7169,-2.7181,-2.7197,-2.7236,-2.7253,-2.7277,-2.7305,-2.7313,-2.735,-2.738,-2.7409,-2.7448,-2.7463,-2.7489,-2.7496,-2.7479,-2.7481,-2.7487,-2.7486,-2.7502,-2.7506,-2.7507,-2.7507,-2.7507,0,-2.7058,-2.7075,-2.7123,-2.7141,-2.7162,-2.7189,-2.7209,-2.7242,-2.7262,-2.7302,-2.7315,-2.7347,-2.7375,-2.7422,-2.7451,-2.7482,-2.749,-2.7494,-2.7494,-2.7487,-2.749,-2.7488,-2.749,-2.7492,-2.7492,-2.7491,-2.7491,0,-2.7052,-2.7068,-2.7097,-2.7133,-2.7157,-2.7186,-2.7215,-2.7228,-2.7266,-2.7288,-2.732,-2.7342,-2.7384,-2.7416,-2.7451,-2.7472,-2.7488,-2.7492,-2.7495,-2.7486,-2.7475,-2.7481,-2.7476,-2.749,-2.749,-2.749,-2.7491,-2.7491,-2.7043,-2.706,-2.7098,-2.713,-2.7157,-2.7185,-2.7204,-2.7232,-2.726,-2.7298,-2.7316,-2.7349,-2.7383,-2.7433,-2.7454,-2.748,-2.7484,-2.7488,-2.7489,-2.749,-2.7488,-2.7473,-2.7486,-2.7486,-2.7486,-2.7487,-2.7487,0,-2.7038,-2.7065,-2.7094,-2.7137,-2.7162,-2.7179,-2.7213,-2.7233,-2.7262,-2.7294,-2.7322,-2.736,-2.7392,-2.7426,-2.746,-2.7474,-2.7483,-2.7482,-2.748,-2.7485,-2.7483,-2.7476,-2.7475,-2.7475,-2.7475,-2.7475,-2.7475,-2.7475,-2.7038,-2.7069,-2.709,-2.7135,-2.7161,-2.7195,-2.7214,-2.724,-2.7266,-2.7308,-2.7336,-2.7359,-2.7392,-2.7429,-2.7459,-2.7469,-2.748,-2.7477,-2.7488,-2.7484,-2.7485,-2.7486,-2.748,-2.7479,-2.7479,-2.7488,-2.7489,-2.7489]},{"header":{"parameterUnit":"m.s-1","parameterCategory":1,"la1":30.2991,"la2":30.254,"lo1":-89.0895,"lo2":-89.0444,"dy":0.0017,"dx":0.0017,"nx":28,"ny":28,"refTime":"2023-09-02T21:00:00:Z","depth":0,"parameterNumber":3,"parameterNumberName":"V-component_of_WINDS"},"data":[0,0,0,0,0,0,0,0,0,0,0,0,0,0,0,0,0,0,0,0,0,0,0,0,0,0,0,0,0,0,0,0,0,0,0,0,0,0,0,0,0,0,0,0,0,0,0,0,0,0,0,0,0,0,0,0,0,0,0.3614,0.3613,0,0.3532,0.3531,0.353,0.342,0.3418,0.3417,0.3415,0.3329,0.3329,0.3328,0,0,0,0,0,0,0,0,0,0,0,0,0,0.3678,0.3677,0.3614,0.3613,0.3612,0.3532,0.3531,0.353,0.3421,0.3418,0.3416,0.3414,0.333,0.3329,0.3328,0,0,0,0,0,0,0,0,0,0,0,0,0,0.3628,0.3677,0.3614,0.3548,0.3541,0.3532,0.3531,0.3529,0.3421,0.3418,0.3416,0.3413,0.333,0.3329,0.3328,0.3377,0,0,0.3325,0.3325,0,0,0,0,0,0,0,0,0.3631,0.3626,0.3559,0.3552,0.3545,0.3483,0.3522,0.3478,0.3422,0.3467,0.3415,0.3412,0.3383,0.3377,0.3368,0.3373,0.3369,0.3325,0.3325,0.3324,0.3324,0,0,0,0,0,0,0,0.3635,0.3629,0.3581,0.3558,0.3549,0.3523,0.3513,0.3513,0.3441,0.3462,0.3454,0.3446,0.3378,0.3369,0.3365,0.3368,0.3325,0.3325,0.3324,0.3324,0.3412,0.3415,0,0,0,0,0,0,0.3648,0.3633,0.3584,0.3579,0.3582,0.3524,0.3513,0.3506,0.3441,0.3428,0.3449,0.3441,0.3372,0.3366,0.3362,0.3416,0.3324,0.3324,0.3323,0.3409,0.3413,0.3416,0,0,0,0,0,0,0.365,0.3645,0.3587,0.3604,0.3594,0.3526,0.3519,0.3506,0.3496,0.343,0.3417,0.3452,0.3369,0.3363,0.3375,0.3411,0.3323,0.3322,0.3406,0.341,0.3414,0.3524,0,0,0,0,0,0,0.3652,0.3646,0.3663,0.3605,0.3594,0.3602,0.3521,0.3506,0.3495,0.3485,0.343,0.3418,0.3367,0.3377,0.3374,0.3408,0.3322,0.3402,0.3408,0.3413,0.3517,0.3532,0.3545,0,0,0,0,0,0.3655,0.3697,0.3665,0.366,0.3614,0.3604,0.3597,0.3538,0.3498,0.3515,0.3474,0.342,0.3408,0.3379,0.3375,0.341,0.34,0.3406,0.3412,0.3511,0.3529,0.3544,0,0,0,0,0,0,0.376,0.3688,0.3651,0.3675,0.3647,0.3585,0.3605,0.3559,0.354,0.3531,0.3458,0.3447,0.3468,0.344,0.3408,0.3455,0.3396,0.3402,0.3472,0.3489,0.3502,0.3508,0.3321,0,0,0,0,0,0.3787,0.3784,0.3721,0.3748,0.3736,0.3674,0.3667,0.3624,0.3591,0.3578,0.3537,0.3507,0.3497,0.3491,0.3478,0.3513,0.35,0.3536,0.3549,0.3561,0.3567,0.3586,0.3601,0.3437,0.3437,0.3437,0,0,0.384,0.38,0.3803,0.3769,0.3741,0.3741,0.3664,0.3666,0.3666,0.3578,0.3587,0.3557,0.3519,0.3543,0.3552,0.352,0.361,0.3569,0.3579,0.3578,0.3594,0.3609,0.3623,0.3441,0.3441,0.344,0,0,0.3937,0.3907,0.3927,0.3903,0.3863,0.3822,0.3827,0.3773,0.375,0.3758,0.3693,0.3692,0.3676,0.3652,0.3638,0.3732,0.3682,0.3729,0.3801,0.382,0.3833,0.3844,0.3878,0.3892,0.3736,0.3736,0.3736,0,0.4009,0.4006,0.3943,0.3951,0.3939,0.3862,0.3882,0.3861,0.3819,0.3813,0.3779,0.3759,0.3727,0.3746,0.377,0.3761,0.3765,0.3734,0.3836,0.3847,0.3856,0.3888,0.3901,0.3742,0.3741,0.3741,0.374,0,0.4096,0.4096,0.4117,0.408,0.407,0.4085,0.4026,0.4023,0.3983,0.3946,0.3957,0.3917,0.3896,0.3898,0.3857,0.3912,0.3894,0.3849,0.3788,0.3879,0.3908,0.3919,0.3751,0.3748,0.3747,0.3745,0,0,0.4254,0.4186,0.4195,0.4178,0.4131,0.4129,0.4142,0.4122,0.4122,0.4097,0.4106,0.4096,0.4055,0.4039,0.3996,0.4013,0.4092,0.3966,0.3964,0.3991,0.4152,0.4186,0.4201,0.406,0.4062,0.4063,0.4156,0,0.4343,0.4359,0.4305,0.4336,0.4335,0.4264,0.4275,0.4248,0.4215,0.421,0.4173,0.4168,0.4114,0.4104,0.4118,0.408,0.4123,0.4072,0.4068,0.4068,0.4079,0.4216,0.4251,0.434,0.4166,0.4168,0.417,0,0.4447,0.443,0.4461,0.4414,0.4412,0.4423,0.4402,0.4398,0.4367,0.4342,0.4327,0.4278,0.4288,0.4231,0.4244,0.4211,0.4207,0.4188,0.419,0.4186,0.4124,0.4217,0.4366,0.438,0.4187,0.4185,0.4184,0,0.4561,0.4545,0.4561,0.4549,0.4496,0.4505,0.4483,0.445,0.4442,0.4425,0.442,0.4403,0.4394,0.4384,0.4332,0.4295,0.4353,0.4291,0.4333,0.4334,0.4346,0.4346,0.4498,0.4345,0.4344,0.4344,0.4344,0,0.4664,0.4686,0.4612,0.4622,0.4646,0.4585,0.461,0.4581,0.4552,0.4556,0.4494,0.45,0.4432,0.443,0.439,0.4409,0.4405,0.4386,0.4374,0.4391,0.4393,0.4386,0.4378,0.4348,0.4347,0.4346,0.4346,0,0.4794,0.4745,0.4759,0.4708,0.4696,0.4716,0.4673,0.4681,0.4645,0.4652,0.465,0.4594,0.459,0.4538,0.4522,0.4495,0.4529,0.4507,0.454,0.4533,0.4578,0.4575,0.4729,0.4747,0.4583,0.4585,0.4586,0,0.4863,0.4878,0.4831,0.483,0.4811,0.481,0.4803,0.4745,0.474,0.4708,0.4721,0.4712,0.4701,0.4698,0.4656,0.4644,0.4621,0.4676,0.4618,0.4636,0.4623,0.4622,0.4624,0.4688,0.469,0.4692,0.4693,0,0.4991,0.4967,0.496,0.4945,0.4939,0.4924,0.4906,0.4909,0.4845,0.4843,0.4839,0.4831,0.4816,0.4808,0.479,0.4768,0.4721,0.4713,0.4722,0.4738,0.4757,0.4748,0.4573,0.4709,0.4707,0.4706,0.4705,0.4704,0.5093,0.5104,0.5073,0.5068,0.5048,0.5033,0.5039,0.5006,0.5001,0.4985,0.4951,0.4953,0.4924,0.4895,0.4878,0.4879,0.485,0.4863,0.4866,0.487,0.488,0.4758,0.4875,0.4874,0.4874,0.4873,0.4873,0,0.5218,0.5196,0.5192,0.5169,0.5165,0.5123,0.5101,0.5101,0.5103,0.5081,0.5073,0.5069,0.5063,0.5022,0.5011,0.502,0.4998,0.5019,0.5017,0.5014,0.4905,0.4899,0.5037,0.5037,0.5037,0.5037,0.5037,0.5037,0.5283,0.5301,0.5274,0.5283,0.526,0.5261,0.5253,0.5239,0.5221,0.522,0.5215,0.5189,0.516,0.5148,0.514,0.5129,0.5128,0.5156,0.5138,0.5037,0.5021,0.5006,0.4999,0.5156,0.5157,0.5246,0.5247,0.5247]}]]